Wind_Speed
12 12 12 13 13 14 14 14 15 15 15 15 17 17 18 18 19 20 20 20 19 19 19 19 19 20 20 20 20 19 20 20 21 21 21 21 21 21 21 21 21 21 20
14 14 14 14 14 15 16 16 16 16 16 17 17 18 19 19 20 20 20 19 19 19 19 20 20 21 21 21 20 20 21 22 22 21 22 22 22 22 21 21 21 22 21
15 16 16 16 16 17 17 17 17 17 18 18 18 20 20 20 20 21 20 19 19 19 20 20 20 21 22 22 22 22 22 22 23 22 23 23 22 22 22 22 22 22 22
16 17 17 18 18 18 18 18 18 18 19 20 20 21 21 21 21 21 21 21 20 21 21 21 21 22 22 22 23 23 23 23 23 23 23 22 23 22 23 22 22 23 23
17 18 18 18 19 19 19 20 20 20 20 21 21 22 22 22 22 22 22 21 21 22 23 23 23 22 23 23 23 23 23 23 22 23 23 22 22 22 23 24 23 23 23
20 20 20 20 20 21 21 22 22 22 22 22 22 22 22 22 23 23 23 23 23 23 23 23 24 24 24 23 23 23 23 22 23 23 23 23 23 23 23 24 24 23 24
22 22 22 22 23 23 24 24 24 24 24 23 23 22 22 23 24 24 24 24 24 24 24 23 23 23 24 23 24 23 23 23 23 23 23 23 24 24 24 24 24 25 25
24 24 24 25 25 25 26 26 26 26 25 25 24 24 24 24 25 25 25 24 25 25 24 24 24 24 23 23 23 23 23 24 24 24 24 24 25 25 25 25 25 26 26
25 25 26 26 26 26 27 27 27 27 27 26 26 26 26 26 26 26 26 26 26 25 25 24 24 24 23 24 24 24 24 24 24 25 25 25 25 25 25 25 26 27 27
26 26 27 27 27 27 27 27 27 27 27 27 27 27 27 27 27 27 27 27 26 26 26 26 26 25 24 24 24 24 24 25 25 26 26 26 26 26 26 26 26 27 28
28 29 28 29 29 29 29 28 28 28 28 28 28 28 27 27 27 27 28 27 27 26 26 26 26 25 24 25 25 25 26 26 26 26 26 27 27 28 28 28 28 29 29
30 30 30 30 31 31 30 30 29 28 28 29 29 29 29 28 28 28 29 29 28 28 27 26 26 26 26 27 27 27 27 27 27 28 28 29 29 29 29 29 30 30 30
31 31 31 31 31 31 31 30 30 29 30 30 31 31 31 30 29 29 30 30 30 29 28 28 27 27 28 28 29 29 29 29 29 29 29 29 30 30 30 31 31 31 31
32 32 32 32 33 32 32 31 32 32 31 31 31 32 31 31 31 31 31 31 31 31 29 29 29 29 29 29 30 30 30 30 30 31 31 31 31 31 30 31 31 32 32
32 32 32 33 33 34 34 33 33 32 32 31 31 32 32 32 32 32 32 32 31 31 30 30 29 30 30 30 31 31 31 31 32 32 33 32 32 33 33 33 33 33 33
32 32 33 34 34 35 34 34 34 34 33 33 32 32 32 32 31 31 32 31 31 31 30 30 30 31 31 31 32 32 32 32 33 33 34 34 34 34 34 34 35 35 35
32 33 33 33 33 33 33 33 33 33 33 32 31 31 31 31 32 32 32 32 31 31 31 32 32 32 33 33 33 33 34 34 34 34 34 34 34 35 36 36 37 36 36
32 32 31 31 32 32 33 33 32 32 32 30 30 30 31 31 32 32 31 31 31 31 32 33 33 33 33 34 34 33 33 33 33 34 34 35 35 36 37 38 38 38 38
31 31 31 31 32 32 32 32 32 31 31 30 30 30 30 30 31 31 30 30 31 31 32 32 33 33 34 34 34 34 34 34 34 35 35 36 36 37 38 38 38 39 39
32 31 32 32 32 32 31 31 31 30 29 29 29 29 29 30 30 29 28 29 31 32 33 33 34 33 34 35 34 34 34 35 35 36 37 37 37 38 38 38 38 39 39
31 32 32 32 31 31 30 30 30 30 29 29 28 28 28 28 27 27 28 29 30 32 33 33 34 33 33 33 34 34 35 35 36 37 37 38 38 39 39 39 39 38 38
31 31 31 31 30 30 29 29 29 29 29 30 29 28 27 27 28 28 28 29 30 31 32 33 33 33 32 33 34 34 35 36 37 37 38 39 39 39 39 39 39 38 38
30 30 30 31 31 30 30 30 30 29 29 29 27 26 26 27 28 29 29 29 31 32 33 34 33 33 33 34 35 36 36 37 38 39 39 39 39 40 40 39 38 38 39
30 30 31 30 29 29 29 29 29 28 28 27 27 27 28 28 28 28 29 30 31 32 33 33 33 34 34 35 36 36 37 37 38 39 40 39 39 39 38 38 38 38 38
28 29 29 29 28 28 28 28 28 27 27 27 27 28 29 29 29 29 30 31 32 34 34 34 34 35 35 35 35 36 37 37 38 39 39 39 39 38 38 38 38 37 37
27 28 27 28 28 28 27 27 26 26 26 27 28 28 29 29 30 31 32 33 34 34 34 34 35 35 36 36 36 37 38 38 38 38 39 39 38 38 38 38 38 37 38
Wind_Direction
318 317 316 317 318 318 318 317 317 317 317 319 320 320 320 319 317 315 312 308 305 304 303 302 300 300 301 302 300 298 297 297 298 296 295 295 296 296 295 294 294 292 292
311 310 311 311 311 312 312 314 314 314 316 318 318 318 317 316 316 317 314 311 306 305 303 302 300 299 299 299 298 298 297 296 297 297 295 293 294 295 296 295 292 289 289
306 306 306 306 306 308 309 309 310 310 310 310 311 313 313 314 315 316 315 313 310 308 307 305 301 300 297 296 296 297 297 296 297 296 296 293 293 294 294 294 295 291 289
302 303 303 302 303 304 305 307 307 309 308 308 309 311 311 312 313 314 312 312 311 308 307 305 303 302 298 297 296 296 296 296 298 297 297 296 294 294 295 295 296 295 292
299 300 300 299 299 300 302 304 305 306 307 306 305 307 309 310 311 313 312 312 311 308 307 304 303 301 300 299 298 297 296 296 297 297 296 296 296 296 296 295 294 296 295
295 296 297 297 297 297 299 301 302 303 303 304 304 305 306 308 307 308 310 311 312 308 307 304 301 299 301 299 298 298 298 297 297 297 297 297 297 297 298 296 294 293 294
290 291 292 294 295 295 295 297 297 298 298 300 301 303 304 306 305 305 308 310 311 311 310 308 306 305 303 301 300 299 298 297 297 298 298 298 297 297 297 296 294 294 295
287 288 289 291 291 292 293 293 294 295 295 296 296 298 299 302 304 305 305 307 311 310 310 310 309 309 305 304 302 301 300 299 298 297 297 297 297 297 296 295 293 294 294
286 288 289 290 289 290 291 291 292 293 293 292 293 294 297 300 302 303 303 303 305 305 306 307 307 308 307 304 302 301 301 300 299 297 296 295 295 295 296 296 294 294 293
283 284 285 288 288 290 291 289 289 291 291 291 291 293 296 297 299 301 302 302 303 303 304 305 305 304 304 304 303 303 303 301 299 298 297 295 294 293 294 294 293 293 294
281 282 282 286 288 289 288 288 288 288 288 288 289 292 295 295 296 298 300 301 301 301 301 302 302 302 302 304 304 303 302 301 300 300 299 297 295 293 293 291 291 292 293
280 281 282 283 286 286 286 285 286 287 287 286 287 289 292 294 295 296 298 299 299 299 300 300 301 299 299 300 301 301 301 301 301 301 300 299 299 295 292 290 289 290 291
279 280 281 282 284 285 285 283 284 285 286 287 288 289 290 293 294 295 296 298 299 299 299 299 300 299 297 298 298 298 299 299 300 300 300 300 300 298 295 293 292 293 293
278 278 279 281 282 283 284 285 285 286 285 287 288 288 290 290 291 292 295 296 296 297 297 298 299 298 295 296 296 296 297 298 299 299 300 299 299 298 298 297 296 295 294
277 278 279 281 283 283 284 284 285 285 285 287 288 289 289 288 288 290 292 292 294 295 296 296 296 296 295 295 295 296 296 296 296 298 298 298 298 298 298 298 297 297 296
276 278 280 282 283 283 283 283 283 286 285 286 287 288 288 288 290 290 290 291 292 293 295 296 296 296 295 295 295 295 296 296 297 297 297 297 297 297 298 297 297 296 296
278 279 282 283 283 285 285 284 284 285 286 286 286 287 287 287 288 289 290 290 290 291 293 295 297 297 296 295 295 296 296 297 297 297 297 297 297 297 297 296 296 296 296
279 281 283 284 284 285 285 284 283 284 286 286 286 286 287 288 288 288 290 290 291 291 292 294 296 297 297 296 296 296 296 296 296 297 298 297 297 297 297 296 296 296 296
280 281 283 284 284 285 286 285 284 284 285 285 286 287 288 289 290 290 290 291 292 292 293 294 295 297 297 298 297 296 296 296 297 297 298 298 298 298 298 298 298 298 298
279 280 283 284 285 285 285 284 283 283 283 284 284 286 287 289 290 290 289 291 293 293 294 295 296 297 298 298 298 297 297 297 298 299 299 299 299 299 300 299 299 299 298
278 278 280 283 285 286 286 284 283 282 283 282 283 285 287 288 289 291 292 294 295 295 296 297 298 299 300 300 300 299 298 299 299 299 299 300 300 301 300 299 299 298 298
277 278 280 282 284 286 285 283 282 283 283 283 284 284 284 286 288 292 293 295 296 297 298 299 299 299 299 300 300 299 300 300 301 300 300 300 300 300 300 299 299 299 298
278 279 280 282 283 283 284 284 282 283 284 285 283 283 284 286 288 290 293 295 297 298 300 300 299 300 301 301 300 300 300 300 301 301 301 300 300 299 299 300 300 299 299
279 279 281 281 281 281 283 284 284 284 285 286 285 285 285 286 289 292 293 296 297 298 299 300 301 301 302 302 302 302 302 301 300 301 301 300 300 300 300 300 300 299 299
279 280 281 281 281 282 282 283 285 285 285 286 286 286 287 288 291 293 294 295 296 298 299 300 301 302 303 304 304 304 303 302 302 301 301 301 301 300 300 300 300 299 298
281 279 279 280 281 280 281 283 284 285 286 287 288 289 289 290 292 293 295 296 298 299 300 300 301 301 302 303 304 304 304 303 303 303 303 303 303 302 302 301 300 300 300
Height
5899 5898 5897 5896 5895 5894 5893 5891 5890 5889 5888 5886 5885 5883 5881 5880 5878 5876 5874 5872 5870 5869 5868 5867 5865 5864 5862 5861 5859 5858 5857 5855 5854 5853 5851 5850 5848 5847 5846 5844 5843 5841 5841
5896 5895 5894 5893 5892 5891 5890 5888 5887 5886 5884 5883 5881 5880 5878 5876 5874 5872 5869 5867 5865 5864 5863 5862 5860 5859 5858 5856 5854 5853 5851 5850 5848 5847 5846 5844 5843 5841 5840 5838 5837 5836 5835
5893 5892 5891 5890 5889 5888 5886 5885 5884 5882 5881 5879 5877 5876 5874 5872 5870 5868 5865 5863 5861 5859 5858 5857 5855 5854 5852 5850 5849 5847 5845 5844 5842 5841 5839 5838 5837 5835 5834 5832 5831 5830 5829
5890 5888 5887 5886 5885 5884 5883 5881 5880 5878 5877 5875 5873 5872 5870 5868 5866 5864 5861 5858 5857 5855 5853 5852 5850 5848 5846 5844 5843 5841 5839 5838 5836 5834 5833 5831 5830 5829 5827 5826 5825 5824 5823
5886 5884 5883 5882 5881 5880 5879 5877 5876 5874 5873 5871 5869 5867 5865 5863 5861 5859 5857 5854 5853 5851 5849 5846 5844 5842 5840 5838 5837 5835 5833 5831 5829 5828 5826 5825 5824 5822 5821 5819 5819 5817 5816
5881 5880 5879 5878 5877 5875 5874 5873 5871 5870 5868 5866 5864 5863 5861 5858 5856 5854 5852 5850 5848 5846 5843 5841 5839 5836 5834 5832 5830 5829 5827 5825 5823 5822 5820 5819 5817 5816 5814 5813 5812 5811 5810
5876 5875 5874 5873 5872 5870 5869 5868 5866 5864 5862 5861 5859 5857 5855 5853 5851 5849 5847 5845 5843 5841 5838 5835 5833 5831 5829 5827 5825 5823 5821 5819 5817 5816 5814 5813 5811 5809 5808 5807 5805 5804 5803
5870 5869 5868 5867 5866 5864 5863 5861 5860 5858 5856 5855 5853 5852 5850 5848 5846 5844 5841 5839 5838 5835 5833 5831 5828 5826 5823 5821 5819 5817 5815 5813 5811 5810 5808 5807 5805 5803 5802 5800 5799 5797 5795
5863 5862 5861 5860 5859 5858 5856 5855 5853 5852 5850 5848 5847 5845 5843 5841 5839 5837 5835 5834 5832 5830 5827 5825 5823 5820 5818 5815 5813 5811 5809 5807 5805 5803 5802 5800 5798 5796 5795 5793 5791 5790 5788
5857 5856 5854 5853 5852 5851 5850 5848 5846 5845 5843 5841 5840 5838 5836 5835 5833 5831 5829 5827 5825 5824 5822 5819 5817 5814 5812 5809 5807 5805 5803 5801 5799 5797 5795 5793 5791 5789 5787 5785 5784 5782 5780
5849 5848 5847 5846 5845 5844 5842 5841 5839 5838 5836 5834 5833 5832 5830 5828 5826 5825 5823 5821 5819 5817 5815 5813 5811 5808 5806 5803 5801 5799 5797 5795 5792 5790 5788 5786 5784 5782 5780 5778 5776 5774 5772
5841 5841 5840 5839 5838 5836 5834 5833 5831 5830 5829 5827 5825 5824 5823 5821 5819 5818 5816 5814 5812 5810 5808 5806 5804 5802 5799 5797 5795 5793 5790 5788 5786 5784 5781 5779 5777 5774 5772 5770 5767 5765 5763
5833 5832 5832 5831 5829 5828 5826 5825 5823 5822 5821 5819 5818 5816 5815 5813 5812 5810 5808 5806 5804 5802 5800 5799 5797 5794 5792 5790 5788 5786 5783 5780 5778 5776 5774 5771 5769 5766 5763 5761 5759 5757 5754
5825 5824 5823 5822 5821 5820 5819 5817 5816 5815 5813 5812 5810 5809 5807 5806 5804 5802 5800 5798 5796 5794 5792 5791 5789 5787 5785 5783 5780 5778 5775 5773 5770 5768 5765 5763 5760 5758 5755 5753 5750 5748 5746
5816 5815 5814 5813 5812 5811 5810 5809 5808 5806 5805 5803 5802 5800 5799 5797 5796 5794 5792 5790 5788 5787 5785 5783 5781 5779 5777 5774 5772 5770 5767 5764 5762 5759 5756 5754 5751 5749 5746 5743 5741 5738 5736
5807 5806 5805 5804 5803 5802 5801 5800 5799 5798 5796 5794 5793 5791 5790 5788 5787 5785 5783 5781 5780 5778 5776 5774 5772 5770 5768 5765 5763 5760 5758 5755 5752 5750 5747 5744 5742 5739 5736 5733 5731 5728 5725
5799 5798 5796 5794 5793 5793 5792 5791 5790 5789 5786 5784 5783 5782 5781 5780 5778 5776 5774 5772 5771 5769 5767 5766 5764 5761 5759 5756 5753 5751 5748 5745 5743 5740 5737 5734 5731 5729 5726 5723 5720 5717 5714
5790 5789 5787 5786 5785 5784 5783 5782 5781 5779 5778 5777 5775 5774 5772 5771 5770 5768 5766 5764 5762 5761 5759 5757 5754 5752 5749 5747 5744 5741 5738 5736 5733 5730 5727 5724 5721 5718 5715 5712 5709 5706 5703
5781 5780 5779 5778 5776 5775 5774 5773 5772 5771 5770 5769 5767 5766 5764 5763 5761 5759 5757 5755 5754 5752 5750 5748 5746 5743 5740 5737 5734 5731 5728 5726 5723 5720 5717 5714 5710 5707 5704 5701 5697 5694 5691
5772 5771 5770 5769 5768 5767 5765 5764 5763 5762 5761 5760 5759 5758 5756 5755 5753 5751 5749 5747 5745 5743 5740 5738 5736 5733 5731 5728 5724 5721 5718 5715 5712 5709 5706 5703 5699 5696 5693 5689 5686 5682 5679
5763 5762 5761 5760 5759 5758 5757 5756 5755 5753 5752 5752 5750 5750 5748 5746 5744 5742 5740 5738 5736 5733 5731 5729 5726 5723 5721 5718 5715 5712 5708 5705 5702 5699 5695 5692 5688 5685 5681 5677 5673 5670 5667
5754 5753 5753 5752 5751 5750 5749 5747 5746 5745 5744 5743 5742 5741 5739 5738 5736 5734 5732 5730 5727 5725 5722 5719 5717 5714 5711 5708 5705 5702 5698 5695 5691 5687 5684 5680 5677 5673 5669 5665 5661 5658 5654
5745 5744 5744 5743 5742 5741 5740 5739 5738 5737 5735 5734 5733 5732 5731 5729 5727 5725 5723 5721 5719 5716 5713 5710 5707 5703 5700 5697 5694 5691 5687 5684 5680 5676 5673 5669 5665 5661 5657 5653 5649 5646 5642
5736 5735 5735 5734 5733 5732 5731 5730 5729 5728 5727 5726 5725 5724 5722 5721 5719 5717 5715 5713 5710 5707 5704 5701 5697 5694 5690 5687 5683 5680 5676 5672 5669 5665 5661 5657 5653 5649 5645 5641 5637 5634 5630
5727 5727 5726 5725 5725 5724 5723 5722 5721 5720 5719 5718 5717 5715 5714 5712 5711 5709 5706 5704 5701 5698 5695 5691 5688 5684 5681 5677 5673 5669 5665 5661 5657 5653 5649 5645 5641 5637 5633 5630 5626 5622 5618
5719 5718 5718 5717 5717 5716 5715 5714 5713 5712 5711 5710 5709 5707 5706 5704 5702 5700 5697 5695 5692 5688 5685 5682 5678 5674 5671 5667 5663 5659 5655 5651 5646 5642 5637 5633 5629 5625 5622 5618 5614 5610 5606